Location: Noordwijk
(52.2400°N, 4.4500°E)
Time: 21:06:27
(UTC+00:00)

AO-7 - Pass Details

Date: 08 December 2022
Orbit: 1440 x 1459 km, 101.9° (Epoch: 31 January)

Event Time Altitude Azimuth Distance (km) Brightness Sun altitude
Rises 05:33:00 0° 20° (NNE) 4,547 ? -17.9°
Reaches altitude 10° 05:35:48 10° 17° (NNE) 3,567 ? -17.5°
Maximum altitude 05:43:58 64° 299° (WNW) 1,578 ? -16.3°
Drops below altitude 10° 05:52:07 10° 221° (SW) 3,561 ? -15.1°
Sets 05:54:55 0° 218° (SW) 4,538 ? -14.7°
